Flag for U.S.A. Weather past 2 weeks in San Antonio, Texas, U.S.A.

Now
93 °F

Passing clouds.


Feels Like: 100 °F
Forecast: 77 / 97 °F
Wind: 8 mph from Southeast

Location: San Antonio International Airport

Current Time: Jul 26, 2014 at 2:14:27 PM

Latest Report: Jul 26, 2014 at 1:51 PM


Visibility: 10 mi

Pressure: 29.95 "Hg

Humidity: 49%

Dew point: 71 °F

Location of San AntonioLocation

Historic Weather in San Antonio — Graph

°F

San Antonio temperature yesterday

Maximum temperature yesterday: 94 °F (at 3:51 PM)
Minimum temperature yesterday: 77 °F (at 4:51 AM)
Average temperature yesterday: 85 °F

Past Weeks' High & Low Weather Summary

 TemperatureHumidityPressure
High98 °F (Jul 14, 4:51 PM)94% (Jul 18, 1:56 AM)30.17 "Hg (Jul 18, 1:56 AM)
Low73 °F (Jul 18, 2:02 AM)27% (Jul 14, 4:51 PM)29.72 "Hg (Jul 17, 7:51 PM)
Average84 °F66%29.95 "Hg
* Reported Jul 11 12:51 PM — Jul 26 12:51 PM, San Antonio, Weather by CustomWeather, © 2014

Note: Actual official high and low records may vary slightly from our data, if they occured in-between our weather recording intervals... More about our weather records

Advertising

San Antonio weather history for previous 24 hours

 ConditionsComfort  
Time TempWeatherWind HumidityBarometerVisibility
12:51 PM
Jul 26
90 °FPassing clouds.10 mph54%29.98 "Hg10 mi
11:51 AM88 °FPassing clouds.13 mph59%30.00 "Hg10 mi
10:51 AM85 °FPassing clouds.9 mph65%30.01 "Hg10 mi
9:51 AM83 °FPassing clouds.9 mph70%30.00 "Hg10 mi
8:51 AM80 °FPassing clouds.9 mph76%29.99 "Hg9 mi
7:51 AM78 °FSunny.7 mph84%29.97 "Hg8 mi
6:51 AM77 °FClear.6 mph85%29.96 "Hg10 mi
5:51 AM78 °FClear.8 mph84%29.94 "Hg10 mi
4:51 AM78 °FClear.9 mph84%29.94 "Hg10 mi
3:51 AM77 °FClear.7 mph85%29.94 "Hg10 mi
2:51 AM79 °FPassing clouds.6 mph79%29.95 "Hg10 mi
1:51 AM80 °FPassing clouds.8 mph74%29.96 "Hg10 mi
12:51 AM82 °FPassing clouds.13 mph67%29.96 "Hg10 mi
11:51 PM
Jul 25
83 °FPassing clouds.14 mph61%29.95 "Hg10 mi
10:51 PM86 °FPassing clouds.14 mph57%29.94 "Hg10 mi
9:51 PM87 °FPassing clouds.9 mph53%29.92 "Hg10 mi
8:51 PM88 °FPassing clouds.13 mph55%29.90 "Hg10 mi
7:51 PM92 °FPassing clouds.8 mph41%29.88 "Hg10 mi
6:51 PM94 °FPassing clouds.5 mph40%29.88 "Hg10 mi
5:51 PM94 °FPassing clouds.8 mph40%29.88 "Hg10 mi
4:51 PM94 °FPassing clouds.7 mph41%29.89 "Hg10 mi
3:51 PM94 °FPassing clouds.6 mph41%29.91 "Hg10 mi
2:51 PM92 °FPassing clouds.9 mph46%29.93 "Hg10 mi
Weather by CustomWeather, © 2014

See weather overviewHow to use our weather pages